| time (UTC) | temp C | wind direction | speed KPH | gust KPH | rain 1hr cm | rain 24hr cm | rain mn cm | humidity % | barometer mb |
| 20260502163545 | -40 | 4.8 | 12.9 | 0.00 | 0.00 | 0.00 | 14 | 1018.6 | |
| 20260502162339 | -40 | 6.4 | 12.9 | 0.00 | 0.00 | 0.00 | 14 | 1018.7 | |
| 20260502161133 | -40 | 4.8 | 12.9 | 0.00 | 0.00 | 0.00 | 14 | 1018.8 | |
| 20260502152309 | -40 | 6.4 | 14.5 | 0.00 | 0.00 | 0.00 | 14 | 1019.4 | |
| 20260502151103 | -40 | 4.8 | 16.1 | 0.00 | 0.00 | 0.00 | 14 | 1019.5 | |
| 20260502123343 | -40 | 4.8 | 17.7 | 0.00 | 0.00 | 0.00 | 14 | 1021.2 | |
| 20260502122137 | -40 | 3.2 | 12.9 | 0.00 | 0.00 | 0.00 | 14 | 1021.4 | |
| 20260502120932 | -40 | 4.8 | 19.3 | 0.00 | 0.00 | 0.00 | 14 | 1021.6 | |
| 20260502115725 | -40 | 3.2 | 9.7 | 0.00 | 0.00 | 0.00 | 14 | 1021.7 | |
| 20260502114519 | -40 | 4.8 | 19.3 | 0.00 | 0.00 | 0.00 | 14 | 1021.8 | |
| 20260502113312 | -40 | 3.2 | 9.7 | 0.00 | 0.00 | 0.00 | 14 | 1021.9 | |
| 20260502112107 | -40 | 3.2 | 9.7 | 0.00 | 0.00 | 0.00 | 14 | 1022.1 | |
| 20260502110900 | -40 | 6.4 | 14.5 | 0.00 | 0.00 | 0.00 | 14 | 1022.1 | |
| 20260502105655 | -40 | 3.2 | 16.1 | 0.00 | 0.00 | 0.00 | 14 | 1022.2 | |
| 20260502104448 | -40 | 8.0 | 17.7 | 0.00 | 0.00 | 0.00 | 14 | 1022.3 | |
| 20260502103242 | -40 | 8.0 | 19.3 | 0.00 | 0.00 | 0.00 | 14 | 1022.5 | |
| 20260502102037 | -40 | 3.2 | 14.5 | 0.00 | 0.00 | 0.00 | 14 | 1022.7 | |
| 20260502100831 | -40 | 4.8 | 16.1 | 0.00 | 0.00 | 0.00 | 14 | 1022.8 | |
| 20260502090800 | -40 | 4.8 | 16.1 | 0.00 | 0.00 | 0.00 | 14 | 1023.2 | |
| 20260502070659 | -40 | 4.8 | 16.1 | 0.00 | 0.00 | 0.00 | 14 | 1023.6 | |
| 20260502065453 | -40 | 3.2 | 16.1 | 0.00 | 0.00 | 0.00 | 14 | 1023.6 | |
| 20260502064247 | -40 | 3.2 | 12.9 | 0.00 | 0.00 | 0.00 | 14 | 1023.7 | |
| 20260502063040 | -40 | 3.2 | 9.7 | 0.00 | 0.00 | 0.00 | 14 | 1023.8 | |
| 20260502061835 | -40 | 4.8 | 9.7 | 0.00 | 0.00 | 0.00 | 14 | 1023.7 | |
| 20260502060628 | -40 | 4.8 | 9.7 | 0.00 | 0.00 | 0.00 | 14 | 1023.7 | |
| 20260502055422 | -40 | 6.4 | 12.9 | 0.00 | 0.00 | 0.00 | 14 | 1023.7 | |
| 20260502054216 | -40 | 6.4 | 12.9 | 0.00 | 0.00 | 0.00 | 14 | 1023.7 | |
| 20260502053010 | -40 | 6.4 | 9.7 | 0.00 | 0.00 | 0.00 | 14 | 1023.8 | |
| 20260502051805 | -40 | 4.8 | 8.0 | 0.00 | 0.00 | 0.00 | 14 | 1023.8 | |
| 20260502050558 | -40 | 3.2 | 8.0 | 0.00 | 0.00 | 0.00 | 14 | 1023.8 | |
| 20260502045352 | -40 | 1.6 | 6.4 | 0.00 | 0.00 | 0.00 | 14 | 1023.8 | |
| 20260502044146 | -40 | 3.2 | 8.0 | 0.00 | 0.00 | 0.00 | 14 | 1023.7 | |
| 20260502042940 | -40 | 4.8 | 8.0 | 0.00 | 0.00 | 0.00 | 14 | 1023.7 | |
| 20260502041734 | -40 | 4.8 | 6.4 | 0.00 | 0.00 | 0.00 | 14 | 1023.8 | |
| 20260502040528 | -40 | 3.2 | 6.4 | 0.00 | 0.00 | 0.00 | 14 | 1023.7 | |
| 20260502035322 | -40 | 3.2 | 6.4 | 0.00 | 0.00 | 0.00 | 14 | 1023.7 | |
| 20260502034115 | -40 | 3.2 | 6.4 | 0.00 | 0.00 | 0.00 | 14 | 1023.7 | |
| 20260502032909 | -40 | 3.2 | 6.4 | 0.00 | 0.00 | 0.00 | 14 | 1023.7 | |
| 20260502031703 | -40 | 4.8 | 6.4 | 0.00 | 0.00 | 0.00 | 14 | 1023.7 | |
| 20260502030531 | -40 | 3.2 | 6.4 | 0.00 | 0.00 | 0.00 | 14 | 1023.8 | |
| 20260502030458 | -40 | 3.2 | 6.4 | 0.00 | 0.00 | 0.00 | 14 | 1023.8 | |
| 20260502025250 | -40 | 3.2 | 6.4 | 0.00 | 0.00 | 0.00 | 14 | 1023.8 | |
| 20260502024045 | -40 | 4.8 | 6.4 | 0.00 | 0.00 | 0.00 | 14 | 1023.9 | |
| 20260502022839 | -40 | 4.8 | 8.0 | 0.00 | 0.00 | 0.00 | 14 | 1024.0 | |
| 20260502021633 | -40 | 3.2 | 8.0 | 0.00 | 0.00 | 0.00 | 14 | 1023.9 | |
| 20260502020426 | -40 | 3.2 | 6.4 | 0.00 | 0.00 | 0.00 | 14 | 1024.0 | |
| 20260502015220 | -40 | 4.8 | 6.4 | 0.00 | 0.00 | 0.00 | 14 | 1024.1 | |
| 20260502014015 | -40 | 3.2 | 8.0 | 0.00 | 0.00 | 0.00 | 14 | 1024.1 | |
| 20260502012809 | -40 | 3.2 | 6.4 | 0.00 | 0.00 | 0.00 | 14 | 1024.2 | |
| 20260502011602 | -40 | 3.2 | 8.0 | 0.00 | 0.00 | 0.00 | 14 | 1024.3 | |
| 20260502010356 | -40 | 4.8 | 8.0 | 0.00 | 0.00 | 0.00 | 14 | 1024.3 | |
| 20260502005150 | -40 | 4.8 | 8.0 | 0.00 | 0.00 | 0.00 | 14 | 1024.4 | |
| 20260502003945 | -40 | 3.2 | 6.4 | 0.00 | 0.00 | 0.00 | 14 | 1024.6 | |
| 20260502002738 | -40 | 3.2 | 8.0 | 0.00 | 0.00 | 0.00 | 14 | 1024.7 | |
| 20260502001532 | -40 | 4.8 | 8.0 | 0.00 | 0.00 | 0.00 | 14 | 1024.7 | |
| 20260502000327 | -40 | 4.8 | 9.7 | 0.00 | 0.00 | 0.00 | 14 | 1024.8 | |
| 20260501235120 | -40 | 3.2 | 8.0 | 0.00 | 0.00 | 0.00 | 14 | 1024.9 | |
| 20260501233914 | -40 | 3.2 | 8.0 | 0.00 | 0.00 | 0.00 | 14 | 1025.1 | |
| 20260501232707 | -40 | 3.2 | 6.4 | 0.00 | 0.00 | 0.00 | 14 | 1025.2 | |
| 20260501231502 | -40 | 3.2 | 8.0 | 0.00 | 0.00 | 0.00 | 14 | 1025.3 | |
| 20260501230255 | -40 | 3.2 | 4.8 | 0.00 | 0.00 | 0.00 | 14 | 1025.3 | |
| 20260501225051 | -40 | 3.2 | 4.8 | 0.00 | 0.00 | 0.00 | 14 | 1025.3 | |
| 20260501223843 | -40 | 3.2 | 6.4 | 0.00 | 0.00 | 0.00 | 14 | 1025.4 | |
| 20260501222638 | -40 | 3.2 | 6.4 | 0.00 | 0.00 | 0.00 | 14 | 1025.4 | |
| 20260501221432 | -40 | 3.2 | 8.0 | 0.00 | 0.00 | 0.00 | 14 | 1025.4 | |
| 20260501220225 | -40 | 3.2 | 6.4 | 0.00 | 0.00 | 0.00 | 14 | 1025.4 | |
| 20260501215019 | -40 | 4.8 | 8.0 | 0.00 | 0.00 | 0.00 | 14 | 1025.4 | |
| 20260501213813 | -40 | 3.2 | 8.0 | 0.00 | 0.00 | 0.00 | 14 | 1025.4 | |
| 20260501212607 | -40 | 3.2 | 4.8 | 0.00 | 0.00 | 0.00 | 14 | 1025.4 | |
| 20260501211433 | -40 | 3.2 | 6.4 | 0.00 | 0.00 | 0.00 | 14 | 1025.5 | |
| 20260501211402 | -40 | 3.2 | 6.4 | 0.00 | 0.00 | 0.00 | 14 | 1025.5 | |
| 20260501210154 | -40 | 1.6 | 4.8 | 0.00 | 0.00 | 0.00 | 14 | 1025.5 | |
| 20260501204949 | -40 | 3.2 | 6.4 | 0.00 | 0.00 | 0.00 | 14 | 1025.5 | |
| 20260501203744 | -40 | 3.2 | 4.8 | 0.00 | 0.00 | 0.00 | 14 | 1025.5 | |
| 20260501202538 | -40 | 3.2 | 4.8 | 0.00 | 0.00 | 0.00 | 14 | 1025.6 | |
| 20260501201330 | -40 | 3.2 | 6.4 | 0.00 | 0.00 | 0.00 | 14 | 1025.5 | |
| 20260501200125 | -40 | 3.2 | 6.4 | 0.00 | 0.00 | 0.00 | 14 | 1025.5 | |
| 20260501194918 | -40 | 3.2 | 6.4 | 0.00 | 0.00 | 0.00 | 14 | 1025.4 | |
| 20260501193712 | -40 | 4.8 | 12.9 | 0.00 | 0.00 | 0.00 | 14 | 1025.4 | |
| 20260501192506 | -40 | 4.8 | 9.7 | 0.00 | 0.00 | 0.00 | 14 | 1025.4 | |
| 20260501191300 | -40 | 4.8 | 12.9 | 0.00 | 0.00 | 0.00 | 14 | 1025.4 | |
| 20260501190054 | -40 | 3.2 | 8.0 | 0.00 | 0.00 | 0.00 | 14 | 1025.4 | |
| 20260501184848 | -40 | 3.2 | 8.0 | 0.00 | 0.00 | 0.00 | 14 | 1025.4 | |
| 20260501183641 | -40 | 4.8 | 9.7 | 0.00 | 0.00 | 0.00 | 14 | 1025.3 | |
| 20260501182435 | -40 | 3.2 | 8.0 | 0.00 | 0.00 | 0.00 | 14 | 1025.2 | |
| 20260501181230 | -40 | 3.2 | 9.7 | 0.00 | 0.00 | 0.00 | 14 | 1025.1 | |
| 20260501180121 | -40 | 3.2 | 6.4 | 0.00 | 0.00 | 0.00 | 14 | 1025.1 | |
| 20260501180022 | -40 | 3.2 | 6.4 | 0.00 | 0.00 | 0.00 | 14 | 1025.1 | |
| 20260501174817 | -40 | 3.2 | 8.0 | 0.00 | 0.00 | 0.00 | 14 | 1025.0 | |
| 20260501173611 | -40 | 4.8 | 9.7 | 0.00 | 0.00 | 0.00 | 14 | 1025.0 | |
| 20260501172405 | -40 | 3.2 | 9.7 | 0.00 | 0.00 | 0.00 | 14 | 1024.9 | |
| 20260501171329 | -40 | 4.8 | 9.7 | 0.00 | 0.00 | 0.00 | 14 | 1024.9 | |
| 20260501171158 | -40 | 4.8 | 9.7 | 0.00 | 0.00 | 0.00 | 14 | 1024.9 | |
| 20260501165953 | -40 | 4.8 | 14.5 | 0.00 | 0.00 | 0.00 | 14 | 1024.9 | |
| 20260501164747 | -40 | 4.8 | 9.7 | 0.00 | 0.00 | 0.00 | 14 | 1024.9 |